Temp
66 65 65 65 64 65 65 65 64 63 63 64 64 64 65 65 65 64 64 64 65 66 66 63 65 65 65 65 66 66 66 66 67 67 67 66 67 66 66 66 66 66 66 66 67 67 68 69 69 69 70 70 70 70 70 71 71 71 71 70 70 70 70
66 66 65 65 65 64 64 64 63 62 63 64 64 64 64 64 64 64 65 64 64 66 66 64 67 64 64 65 65 66 65 66 67 68 67 66 67 66 66 66 66 66 66 66 67 67 68 69 69 69 70 70 70 71 70 70 70 70 70 70 69 69 70
65 65 65 64 64 65 65 63 62 63 64 64 64 64 64 65 65 65 65 65 65 65 64 63 65 64 64 64 64 65 65 65 66 66 65 65 65 66 66 66 67 66 67 67 67 67 68 69 69 69 70 69 69 70 70 70 70 70 70 70 70 69 69
65 65 65 65 65 65 65 64 64 63 64 65 65 65 64 65 65 64 65 65 64 65 65 65 63 64 64 64 65 64 65 65 65 65 65 65 65 65 65 65 65 66 65 66 67 67 68 69 68 68 69 68 68 69 69 69 70 70 70 69 69 69 69
65 64 64 63 64 64 64 63 63 63 64 65 64 65 64 65 65 64 63 64 63 64 64 64 64 64 64 63 64 65 65 64 64 64 65 65 65 65 64 64 65 65 65 66 66 67 67 67 67 67 67 67 68 68 68 69 69 69 69 69 68 69 69
64 63 63 64 64 64 64 64 64 65 65 65 64 64 65 65 65 66 64 65 66 65 64 63 63 63 64 63 63 64 64 64 64 64 64 64 64 64 64 65 65 65 65 65 67 67 67 66 66 67 67 67 67 68 68 68 69 69 69 69 68 68 68
64 63 63 64 64 65 64 64 64 64 65 65 64 65 66 65 66 66 65 64 64 64 64 64 64 63 63 64 63 63 63 63 63 63 63 64 64 64 64 64 65 65 65 66 65 66 66 66 67 67 67 67 68 68 68 68 68 68 68 68 68 68 68
65 63 63 64 65 66 65 64 62 63 64 64 63 64 66 65 65 65 65 65 65 64 64 64 64 64 63 64 64 63 63 63 63 63 63 63 63 63 63 64 64 65 65 65 65 66 66 66 67 67 67 67 67 67 68 68 68 68 68 67 67 67 68
64 64 64 65 65 65 64 63 62 63 64 64 64 65 65 65 64 65 65 65 64 64 65 65 65 63 63 63 63 63 63 62 62 63 63 62 63 63 64 64 64 65 65 65 65 66 66 66 67 66 67 66 67 67 67 67 67 68 67 67 66 66 67
62 62 63 64 64 63 62 61 61 62 63 63 63 63 63 64 64 64 64 65 65 64 65 65 64 64 63 63 63 63 62 62 62 62 63 63 63 63 64 65 64 65 64 65 65 65 67 67 67 67 67 67 67 67 67 67 67 67 67 67 66 66 66
61 63 62 62 62 61 60 60 61 62 63 63 63 63 63 63 63 63 64 64 64 64 65 64 64 64 63 63 62 63 62 62 62 62 63 63 64 65 65 65 65 65 65 65 65 66 66 67 67 67 67 67 67 67 67 67 67 67 66 66 66 66 66
61 62 62 62 61 59 60 61 61 61 62 63 63 63 63 63 63 63 63 63 64 64 63 63 64 64 63 63 62 62 62 62 62 62 63 64 65 65 65 65 64 65 65 65 65 66 66 66 67 67 67 68 68 67 67 67 67 66 66 66 65 65 65
62 62 62 62 61 60 60 59 61 62 62 63 63 62 63 63 63 63 63 63 63 62 63 63 62 62 62 63 61 61 62 62 63 62 63 63 64 64 65 65 65 65 64 65 65 65 65 66 66 67 67 67 67 67 67 66 66 66 66 65 64 64 64
64 61 61 60 60 59 60 61 61 61 62 62 62 62 62 62 63 63 63 63 63 62 62 63 62 62 62 61 61 61 62 62 62 62 62 63 64 64 64 64 64 64 64 65 64 65 65 66 66 66 67 67 67 67 67 66 66 66 65 65 63 63 63
61 61 61 60 60 59 60 61 62 62 62 62 62 62 62 62 62 61 60 61 62 62 62 62 61 61 61 61 61 62 62 62 62 63 63 64 63 63 64 64 64 63 64 64 65 65 66 66 66 66 66 67 67 67 67 65 65 65 65 63 63 63 62
61 61 61 61 60 60 60 62 62 63 63 62 61 61 62 61 62 62 62 62 62 61 62 61 61 61 61 61 61 62 62 62 62 63 63 63 63 64 64 63 63 64 64 64 65 65 65 65 66 66 66 66 66 66 66 65 66 64 59 60 63 62 62
61 62 62 62 61 60 61 61 62 62 62 62 61 61 62 62 62 62 61 62 62 61 62 61 61 61 61 62 62 62 62 62 62 62 62 63 63 63 63 64 64 64 63 64 64 64 65 66 65 66 65 65 65 65 65 65 66 61 60 62 63 63 61
62 62 62 62 61 61 60 61 61 61 62 61 62 61 62 62 62 61 61 62 62 63 62 60 60 61 61 62 62 62 62 62 62 62 62 63 63 63 64 64 63 63 63 63 63 64 65 64 65 65 65 65 65 65 65 65 62 60 59 61 61 62 62
62 63 63 62 61 62 61 62 62 62 62 62 62 62 62 63 62 62 62 62 63 62 61 61 61 61 61 62 62 62 62 62 62 62 62 63 63 63 63 63 63 63 64 64 65 64 64 64 64 64 64 65 64 65 65 65 62 60 58 60 60 60 62
64 64 63 62 62 63 63 63 63 63 63 63 63 64 65 64 63 64 64 64 62 61 61 61 61 61 62 62 62 62 62 61 61 61 62 62 62 62 62 62 63 63 64 64 64 63 63 63 63 64 64 64 65 65 65 65 61 59 57 56 57 59 61
63 62 61 62 61 62 63 63 63 62 61 62 64 64 63 63 63 64 62 61 61 61 61 60 61 61 61 61 62 62 62 62 61 61 61 62 62 62 62 62 63 63 64 63 63 63 63 63 63 64 65 65 65 64 64 65 60 57 56 55 55 56 61
63 62 62 63 63 63 62 62 62 62 63 65 65 64 64 64 64 63 63 62 61 62 61 61 61 61 61 61 62 62 63 62 61 61 61 61 61 61 62 62 63 63 64 64 64 63 63 63 63 64 64 64 64 64 63 65 59 57 55 54 54 56 62
66 64 65 65 65 65 64 64 64 64 65 64 64 64 63 65 64 63 63 63 62 61 61 60 60 61 62 63 63 64 64 63 61 61 61 61 61 62 62 62 63 64 64 63 63 62 62 63 63 64 64 64 65 64 64 64 61 56 54 53 53 56 62
65 65 65 65 63 63 62 63 63 64 65 64 63 64 65 65 64 63 62 63 63 62 62 60 61 62 62 63 63 64 64 62 62 62 62 62 62 62 62 63 63 63 64 63 62 62 63 63 62 64 64 64 64 65 64 64 61 56 54 52 52 53 60
65 65 64 64 64 64 63 63 63 64 65 63 63 64 64 64 63 62 62 63 63 62 61 62 62 62 62 63 64 64 63 63 62 62 62 62 62 62 62 63 63 64 63 62 62 62 62 63 62 63 64 64 64 64 64 64 62 57 56 53 51 56 60
62 62 62 63 63 65 65 65 64 64 63 63 64 65 63 63 62 63 63 64 63 62 62 63 63 64 63 64 64 63 63 63 63 63 63 62 62 62 62 63 64 63 62 62 62 62 62 62 61 62 62 63 64 64 64 64 64 63 56 53 51 52 58
64 64 64 64 65 67 64 64 64 65 65 65 65 64 63 62 62 62 64 64 62 62 63 64 64 63 63 63 62 62 63 62 62 62 62 62 62 63 64 63 62 62 62 62 62 61 61 62 62 62 62 62 62 62 64 65 64 64 57 54 52 51 54
64 64 65 67 68 68 64 64 63 63 65 64 64 63 62 62 62 63 63 62 62 64 66 64 63 63 62 62 62 63 63 63 62 61 62 63 63 62 62 62 61 62 62 61 61 61 61 61 61 61 60 61 61 62 63 64 65 64 60 57 53 51 50
63 64 65 64 64 67 67 63 63 63 65 65 64 63 62 62 62 63 63 62 63 65 64 63 62 62 62 62 62 63 63 63 63 63 63 63 63 61 61 61 61 62 61 61 60 60 60 61 61 61 61 61 62 62 62 63 63 60 62 57 54 51 51
63 64 65 67 69 67 68 64 64 64 63 64 63 61 61 61 63 63 63 63 65 64 63 63 62 61 61 62 63 62 62 63 63 62 62 62 61 61 61 61 61 61 61 60 60 59 60 60 60 60 61 61 61 61 61 62 62 61 60 60 56 54 51
63 64 65 66 67 67 67 65 64 63 62 62 61 60 61 61 63 64 63 65 65 63 63 62 62 61 62 62 62 62 62 61 61 60 60 60 61 62 63 62 61 61 61 60 60 59 59 59 60 60 60 60 60 60 61 61 61 63 62 61 58 55 53
61 61 63 63 63 64 66 63 63 62 62 62 60 60 61 60 61 63 64 65 65 63 62 62 62 62 62 62 62 62 61 61 61 60 60 61 61 62 61 61 61 61 60 60 60 60 59 59 61 61 61 60 60 60 61 60 61 62 61 60 58 57 55
61 61 62 63 64 65 63 61 61 61 62 63 62 60 61 60 60 63 64 63 63 62 62 62 62 62 62 62 62 61 60 60 62 62 62 61 60 60 61 61 60 59 60 60 60 60 60 60 60 60 61 60 60 60 60 61 61 60 57 57 56 56 57
59 59 59 59 61 64 60 60 61 62 61 62 62 60 61 61 61 62 62 63 64 64 63 62 63 62 62 62 61 61 60 61 67 65 62 63 62 62 61 60 60 60 60 61 60 59 59 59 58 58 57 57 58 58 58 60 61 59 53 54 53 53 54
57 58 57 60 59 62 59 60 60 60 61 62 62 60 60 60 60 62 61 62 63 61 61 62 64 64 62 61 59 60 64 62 64 65 63 62 61 59 59 60 61 61 60 59 58 58 58 56 56 56 54 54 55 55 57 58 58 55 47 48 46 47 50
56 57 57 57 58 59 60 61 60 60 60 61 60 59 59 59 60 60 62 62 62 61 61 63 63 62 62 61 60 61 62 63 62 61 61 62 61 60 61 62 54 56 61 61 53 47 44 45 51 49 50 53 55 54 53 54 51 44 40 40 39 40 40
57 56 57 58 58 57 58 58 61 60 60 60 60 60 60 60 60 60 61 60 60 60 61 61 62 63 62 62 62 62 63 62 62 61 59 59 59 59 60 61 61 49 46 52 51 46 40 40 41 43 46 49 50 52 48 46 43 40 39 39 40 39 39
55 57 58 57 58 57 58 58 59 59 60 58 59 59 58 59 59 59 60 61 61 60 61 61 61 61 62 62 61 62 65 62 62 62 60 58 58 58 58 59 58 61 48 44 45 43 41 42 42 42 42 43 44 46 51 47 43 40 40 40 40 40 39
MSLP
1015.88 1016.12 1016.20 1016.20 1016.28 1016.16 1015.96 1015.96 1016.08 1016.16 1016.20 1016.24 1016.32 1016.40 1016.48 1016.40 1016.36 1016.40 1016.28 1016.28 1016.28 1016.36 1016.36 1016.36 1016.28 1016.20 1016.12 1016.04 1016.00 1016.00 1015.96 1016.00 1016.00 1016.00 1015.96 1015.92 1015.92 1015.92 1015.92 1015.80 1015.72 1015.56 1015.36 1015.28 1014.96 1014.76 1014.40 1014.12 1014.00 1013.88 1013.80 1013.76 1013.72 1013.64 1013.64 1013.56 1013.56 1013.48 1013.52 1013.52 1013.64 1013.76 1013.72
1015.88 1015.92 1016.00 1016.12 1016.16 1016.08 1015.96 1016.00 1016.16 1016.20 1016.24 1016.28 1016.28 1016.36 1016.44 1016.48 1016.48 1016.44 1016.32 1016.32 1016.28 1016.32 1016.44 1016.44 1016.36 1016.28 1016.24 1016.16 1016.08 1016.04 1016.00 1015.96 1015.92 1015.84 1015.80 1015.72 1015.64 1015.68 1015.68 1015.60 1015.52 1015.40 1015.24 1015.04 1014.84 1014.56 1014.32 1014.08 1013.92 1013.76 1013.64 1013.48 1013.44 1013.36 1013.36 1013.40 1013.40 1013.44 1013.48 1013.52 1013.60 1013.60 1013.52
1015.64 1015.68 1015.84 1015.96 1016.04 1015.88 1015.80 1016.08 1016.16 1016.16 1016.16 1016.20 1016.24 1016.32 1016.28 1016.24 1016.28 1016.24 1016.28 1016.28 1016.28 1016.28 1016.40 1016.40 1016.36 1016.28 1016.24 1016.24 1016.16 1016.04 1016.08 1016.00 1015.92 1015.84 1015.88 1015.88 1015.76 1015.64 1015.56 1015.48 1015.40 1015.28 1015.12 1014.92 1014.76 1014.60 1014.32 1014.12 1013.88 1013.68 1013.56 1013.44 1013.24 1013.12 1013.04 1013.04 1013.08 1013.12 1013.12 1013.08 1013.12 1013.12 1013.08
1015.28 1015.40 1015.44 1015.60 1015.76 1015.68 1015.64 1015.76 1015.88 1016.12 1016.20 1016.00 1015.96 1015.96 1016.04 1016.04 1016.08 1016.16 1016.20 1016.20 1016.20 1016.28 1016.32 1016.28 1016.36 1016.32 1016.24 1016.20 1016.12 1016.08 1016.04 1016.04 1016.00 1015.92 1015.84 1015.84 1015.80 1015.68 1015.56 1015.44 1015.36 1015.24 1015.16 1015.00 1014.76 1014.56 1014.32 1014.12 1013.96 1013.76 1013.56 1013.52 1013.36 1013.16 1013.00 1012.88 1012.76 1012.76 1012.80 1012.80 1012.80 1012.68 1012.64
1015.04 1015.28 1015.64 1015.80 1015.80 1015.76 1015.80 1015.80 1015.84 1015.96 1015.88 1015.88 1015.88 1015.84 1015.84 1015.84 1016.00 1016.16 1016.24 1016.24 1016.28 1016.28 1016.24 1016.24 1016.28 1016.28 1016.20 1016.16 1016.08 1016.04 1016.00 1016.00 1015.96 1015.88 1015.88 1015.80 1015.76 1015.72 1015.64 1015.44 1015.24 1015.16 1015.04 1014.88 1014.68 1014.48 1014.32 1014.20 1014.00 1013.84 1013.68 1013.52 1013.40 1013.24 1013.12 1012.96 1012.84 1012.72 1012.68 1012.64 1012.68 1012.48 1012.28
1014.88 1015.28 1015.44 1015.60 1015.60 1015.56 1015.52 1015.52 1015.64 1015.72 1015.68 1015.72 1015.76 1015.80 1015.80 1015.92 1016.04 1016.12 1016.12 1016.24 1016.28 1016.32 1016.32 1016.28 1016.24 1016.16 1016.04 1016.00 1016.00 1015.92 1015.92 1015.88 1015.84 1015.84 1015.88 1015.80 1015.72 1015.64 1015.52 1015.28 1015.20 1015.00 1014.88 1014.72 1014.52 1014.36 1014.20 1014.12 1013.96 1013.84 1013.76 1013.56 1013.44 1013.24 1013.04 1012.92 1012.76 1012.64 1012.56 1012.52 1012.44 1012.28 1012.12
1014.52 1015.00 1015.20 1015.28 1015.28 1015.32 1015.32 1015.36 1015.64 1015.76 1015.64 1015.60 1015.72 1015.80 1015.88 1015.92 1015.96 1015.96 1016.08 1016.16 1016.24 1016.36 1016.28 1016.28 1016.16 1016.08 1015.88 1015.84 1015.80 1015.84 1015.80 1015.76 1015.76 1015.72 1015.72 1015.64 1015.56 1015.52 1015.36 1015.24 1015.04 1014.84 1014.64 1014.48 1014.40 1014.20 1014.08 1013.92 1013.80 1013.68 1013.64 1013.52 1013.40 1013.24 1013.04 1012.84 1012.68 1012.52 1012.44 1012.36 1012.24 1012.00 1011.80
1014.16 1014.76 1014.84 1014.84 1014.96 1015.00 1015.16 1015.28 1015.60 1015.72 1015.68 1015.68 1015.80 1015.88 1015.88 1015.88 1015.96 1016.00 1016.04 1016.08 1016.20 1016.32 1016.32 1016.28 1016.12 1015.96 1015.80 1015.80 1015.76 1015.72 1015.68 1015.64 1015.64 1015.56 1015.52 1015.52 1015.44 1015.36 1015.20 1015.08 1014.96 1014.72 1014.52 1014.44 1014.16 1014.04 1013.92 1013.76 1013.60 1013.48 1013.40 1013.40 1013.28 1013.12 1012.96 1012.80 1012.64 1012.44 1012.32 1012.24 1012.08 1011.80 1011.52
1014.12 1014.24 1014.40 1014.60 1014.68 1014.84 1014.96 1015.16 1015.32 1015.44 1015.44 1015.56 1015.68 1015.68 1015.76 1015.84 1015.88 1015.88 1015.92 1016.00 1016.12 1016.20 1016.12 1016.04 1015.92 1015.80 1015.80 1015.76 1015.72 1015.64 1015.64 1015.64 1015.52 1015.40 1015.36 1015.36 1015.24 1015.16 1015.00 1014.84 1014.72 1014.56 1014.48 1014.28 1014.04 1013.80 1013.72 1013.60 1013.44 1013.36 1013.28 1013.20 1013.08 1012.92 1012.80 1012.64 1012.48 1012.28 1012.16 1012.00 1011.84 1011.60 1011.32
1014.20 1014.40 1014.60 1014.52 1014.64 1014.88 1015.08 1015.24 1015.44 1015.52 1015.56 1015.68 1015.72 1015.80 1015.80 1015.76 1015.76 1015.84 1015.84 1015.88 1015.96 1016.08 1015.96 1015.88 1015.76 1015.68 1015.72 1015.72 1015.68 1015.64 1015.60 1015.52 1015.40 1015.32 1015.20 1015.12 1015.00 1014.92 1014.76 1014.64 1014.56 1014.40 1014.32 1014.12 1013.96 1013.76 1013.48 1013.40 1013.32 1013.20 1013.12 1013.04 1012.88 1012.72 1012.56 1012.40 1012.24 1012.04 1011.84 1011.68 1011.48 1011.28 1011.04
1014.20 1014.20 1014.40 1014.56 1014.72 1014.92 1015.16 1015.36 1015.44 1015.28 1015.40 1015.52 1015.56 1015.64 1015.72 1015.72 1015.72 1015.76 1015.72 1015.72 1015.84 1015.84 1015.76 1015.72 1015.64 1015.68 1015.64 1015.68 1015.68 1015.56 1015.56 1015.40 1015.28 1015.16 1014.96 1014.84 1014.76 1014.64 1014.48 1014.44 1014.40 1014.28 1014.16 1014.00 1013.84 1013.60 1013.44 1013.28 1013.16 1013.12 1013.00 1012.92 1012.76 1012.52 1012.40 1012.20 1012.00 1011.84 1011.64 1011.40 1011.20 1010.96 1010.72
1014.08 1014.20 1014.24 1014.32 1014.64 1014.96 1015.04 1015.12 1015.12 1015.20 1015.36 1015.44 1015.48 1015.48 1015.52 1015.56 1015.60 1015.60 1015.56 1015.56 1015.60 1015.68 1015.64 1015.56 1015.52 1015.56 1015.56 1015.60 1015.60 1015.48 1015.36 1015.20 1015.08 1014.92 1014.76 1014.64 1014.52 1014.36 1014.28 1014.28 1014.24 1014.16 1014.04 1013.92 1013.80 1013.52 1013.36 1013.24 1013.04 1012.96 1012.84 1012.72 1012.52 1012.36 1012.20 1011.96 1011.76 1011.60 1011.44 1011.24 1011.08 1010.84 1010.52
1013.84 1014.00 1014.04 1014.20 1014.40 1014.64 1015.04 1015.28 1015.08 1015.00 1015.16 1015.20 1015.20 1015.32 1015.36 1015.32 1015.40 1015.40 1015.44 1015.44 1015.44 1015.44 1015.44 1015.36 1015.40 1015.36 1015.40 1015.40 1015.44 1015.36 1015.20 1015.04 1014.84 1014.72 1014.60 1014.48 1014.32 1014.24 1014.16 1014.12 1014.08 1014.00 1013.88 1013.72 1013.72 1013.56 1013.28 1013.04 1012.88 1012.68 1012.56 1012.44 1012.32 1012.16 1011.96 1011.76 1011.52 1011.32 1011.20 1011.08 1011.00 1010.84 1010.48
1013.88 1014.04 1014.16 1014.32 1014.56 1014.76 1014.76 1014.72 1014.84 1014.92 1014.96 1015.04 1015.08 1015.16 1015.28 1015.24 1015.16 1015.08 1015.16 1015.20 1015.16 1015.20 1015.28 1015.24 1015.24 1015.24 1015.24 1015.28 1015.24 1015.16 1014.96 1014.76 1014.68 1014.56 1014.44 1014.32 1014.20 1014.12 1014.04 1013.96 1013.88 1013.80 1013.68 1013.60 1013.56 1013.40 1013.16 1012.92 1012.68 1012.36 1012.20 1012.08 1011.96 1011.80 1011.64 1011.52 1011.32 1011.12 1011.00 1010.92 1010.88 1010.64 1010.24
1013.72 1013.92 1014.00 1014.16 1014.24 1014.56 1014.60 1014.56 1014.56 1014.68 1014.80 1014.80 1014.92 1015.08 1015.08 1015.08 1015.00 1015.04 1015.16 1015.20 1015.08 1015.08 1015.08 1015.04 1015.16 1015.08 1015.08 1015.12 1015.08 1014.80 1014.68 1014.64 1014.56 1014.48 1014.32 1014.20 1014.12 1014.00 1013.88 1013.76 1013.68 1013.60 1013.52 1013.40 1013.28 1013.04 1012.84 1012.64 1012.40 1012.20 1012.00 1011.76 1011.64 1011.48 1011.36 1011.32 1011.16 1010.96 1010.80 1010.76 1010.52 1010.32 1010.00
1013.48 1013.64 1013.72 1013.76 1014.08 1014.28 1014.36 1014.24 1014.36 1014.48 1014.56 1014.72 1014.84 1014.92 1014.92 1014.80 1014.72 1014.76 1014.84 1014.84 1014.84 1014.88 1014.76 1015.00 1014.96 1014.88 1014.84 1014.84 1014.68 1014.60 1014.60 1014.56 1014.48 1014.32 1014.20 1014.04 1013.88 1013.80 1013.72 1013.64 1013.52 1013.40 1013.32 1013.16 1013.00 1012.84 1012.64 1012.48 1012.24 1012.08 1011.88 1011.76 1011.56 1011.32 1011.16 1011.04 1010.88 1010.72 1010.60 1010.52 1010.40 1010.00 1009.64
1013.20 1013.28 1013.28 1013.52 1014.00 1014.12 1014.16 1014.28 1014.32 1014.44 1014.56 1014.52 1014.68 1014.64 1014.40 1014.28 1014.32 1014.52 1014.68 1014.68 1014.64 1014.60 1014.48 1014.72 1014.64 1014.56 1014.56 1014.48 1014.36 1014.52 1014.48 1014.40 1014.20 1014.16 1013.96 1013.76 1013.72 1013.64 1013.56 1013.44 1013.32 1013.20 1013.08 1012.92 1012.80 1012.64 1012.44 1012.24 1012.08 1011.84 1011.68 1011.60 1011.44 1011.24 1011.00 1010.84 1010.72 1010.52 1010.40 1010.24 1010.08 1009.88 1009.56
1012.80 1012.92 1013.08 1013.32 1013.60 1013.84 1014.04 1014.08 1014.24 1014.28 1014.20 1014.28 1014.36 1014.28 1014.00 1014.00 1014.12 1014.36 1014.40 1014.36 1014.44 1014.24 1014.28 1014.48 1014.36 1014.28 1014.24 1014.24 1014.28 1014.28 1014.20 1014.08 1014.04 1013.96 1013.72 1013.68 1013.56 1013.44 1013.36 1013.28 1013.12 1013.00 1012.84 1012.72 1012.60 1012.36 1012.20 1012.08 1011.88 1011.64 1011.44 1011.32 1011.24 1011.08 1010.80 1010.64 1010.48 1010.36 1010.24 1010.12 1009.88 1009.60 1009.36
1012.28 1012.40 1012.56 1012.92 1013.28 1013.40 1013.56 1013.60 1013.60 1013.60 1013.72 1014.00 1014.00 1013.72 1013.44 1013.48 1013.88 1014.00 1013.88 1014.12 1013.92 1014.04 1014.24 1014.08 1014.00 1014.04 1014.04 1013.96 1014.08 1013.96 1013.92 1013.88 1013.92 1013.76 1013.60 1013.48 1013.40 1013.32 1013.24 1013.12 1012.96 1012.80 1012.64 1012.52 1012.32 1012.24 1012.16 1011.92 1011.72 1011.52 1011.28 1011.16 1011.04 1010.84 1010.56 1010.48 1010.24 1010.16 1010.04 1009.92 1009.68 1009.32 1008.96
1011.60 1011.76 1012.16 1012.64 1012.80 1012.84 1012.96 1013.20 1013.28 1013.36 1013.36 1013.32 1013.16 1012.80 1012.76 1013.28 1013.40 1013.36 1013.52 1013.72 1013.84 1014.00 1013.84 1013.80 1013.72 1013.84 1013.72 1013.76 1013.76 1013.80 1013.76 1013.76 1013.76 1013.64 1013.44 1013.36 1013.28 1013.20 1013.08 1012.96 1012.76 1012.56 1012.44 1012.36 1012.20 1012.16 1012.00 1011.72 1011.56 1011.32 1011.16 1010.96 1010.76 1010.60 1010.36 1010.24 1010.04 1009.96 1009.88 1009.76 1009.56 1009.20 1008.76
1011.56 1011.92 1012.28 1012.44 1012.64 1012.80 1012.84 1012.80 1012.92 1013.16 1013.44 1013.32 1012.92 1012.80 1013.00 1013.24 1013.32 1013.40 1013.60 1013.72 1013.76 1013.68 1013.68 1013.64 1013.60 1013.64 1013.64 1013.60 1013.52 1013.64 1013.56 1013.60 1013.60 1013.52 1013.32 1013.24 1013.16 1013.08 1012.92 1012.76 1012.56 1012.40 1012.24 1012.16 1012.08 1012.00 1011.84 1011.64 1011.48 1011.16 1010.92 1010.72 1010.52 1010.44 1010.24 1010.00 1009.80 1009.76 1009.72 1009.60 1009.36 1009.08 1008.60
1011.48 1011.92 1012.16 1012.08 1011.88 1012.16 1012.44 1012.64 1012.60 1012.64 1012.60 1012.52 1012.60 1012.68 1012.84 1012.76 1012.96 1013.40 1013.36 1013.40 1013.52 1013.48 1013.52 1013.52 1013.56 1013.48 1013.48 1013.48 1013.36 1013.32 1013.32 1013.40 1013.40 1013.32 1013.24 1013.12 1013.00 1012.92 1012.68 1012.52 1012.40 1012.28 1012.04 1011.96 1011.80 1011.68 1011.60 1011.40 1011.28 1011.08 1010.80 1010.56 1010.44 1010.32 1010.16 1009.80 1009.64 1009.60 1009.60 1009.48 1009.28 1009.04 1008.52
1010.84 1011.28 1011.24 1011.28 1011.36 1011.40 1011.64 1011.76 1012.08 1012.12 1012.12 1012.16 1012.24 1012.52 1012.64 1012.64 1012.88 1013.12 1013.24 1013.36 1013.28 1013.36 1013.44 1013.56 1013.52 1013.36 1013.28 1013.28 1013.12 1013.08 1013.04 1013.12 1013.20 1013.16 1013.04 1012.96 1012.88 1012.68 1012.48 1012.36 1012.16 1011.92 1011.88 1011.88 1011.72 1011.64 1011.44 1011.28 1011.08 1010.84 1010.72 1010.44 1010.28 1010.20 1009.96 1009.68 1009.48 1009.48 1009.48 1009.40 1009.32 1009.00 1008.56
1010.92 1011.12 1011.12 1011.24 1011.52 1011.76 1011.92 1012.00 1012.08 1012.12 1012.00 1011.88 1012.08 1012.12 1012.28 1012.48 1012.72 1013.04 1013.24 1013.20 1013.12 1013.28 1013.28 1013.44 1013.28 1013.12 1013.12 1013.00 1012.84 1012.80 1012.80 1012.88 1013.00 1012.96 1012.84 1012.80 1012.64 1012.48 1012.32 1012.16 1012.04 1011.88 1011.76 1011.88 1011.80 1011.60 1011.36 1011.24 1011.00 1010.64 1010.44 1010.32 1010.16 1009.96 1009.88 1009.60 1009.40 1009.40 1009.32 1009.32 1009.32 1008.96 1008.60
1010.68 1010.80 1010.96 1011.08 1011.16 1011.32 1011.48 1011.60 1011.60 1011.64 1011.80 1011.88 1011.88 1011.88 1012.12 1012.32 1012.64 1013.04 1013.12 1012.96 1012.92 1013.08 1013.20 1013.08 1012.96 1012.92 1012.76 1012.52 1012.48 1012.56 1012.60 1012.68 1012.76 1012.72 1012.68 1012.56 1012.32 1012.28 1012.20 1012.00 1011.84 1011.68 1011.68 1011.72 1011.72 1011.56 1011.32 1011.16 1011.00 1010.64 1010.24 1010.12 1010.00 1009.80 1009.76 1009.56 1009.32 1009.20 1009.16 1009.16 1009.16 1008.88 1008.48
1010.64 1010.72 1010.76 1010.80 1010.88 1010.80 1010.80 1011.00 1011.52 1011.68 1011.64 1011.60 1011.24 1011.36 1011.88 1012.20 1012.60 1012.84 1012.80 1012.64 1012.76 1013.00 1012.96 1012.72 1012.48 1012.40 1012.40 1012.36 1012.36 1012.44 1012.44 1012.52 1012.52 1012.44 1012.44 1012.28 1012.12 1012.04 1012.04 1011.92 1011.76 1011.64 1011.60 1011.56 1011.52 1011.40 1011.16 1010.96 1010.80 1010.56 1010.16 1009.96 1009.92 1009.72 1009.56 1009.44 1009.16 1009.04 1009.00 1008.92 1008.96 1008.80 1008.40
1010.12 1010.16 1010.24 1010.44 1010.32 1010.44 1010.84 1010.92 1010.80 1010.64 1010.68 1010.68 1010.84 1011.36 1011.76 1012.20 1012.56 1012.64 1012.48 1012.44 1012.72 1012.72 1012.36 1012.08 1012.16 1012.28 1012.28 1012.28 1012.32 1012.32 1012.28 1012.32 1012.32 1012.16 1012.12 1012.12 1012.08 1012.00 1011.88 1011.76 1011.72 1011.56 1011.52 1011.40 1011.32 1011.24 1011.04 1010.84 1010.68 1010.48 1010.12 1009.84 1009.76 1009.64 1009.36 1009.20 1009.08 1008.80 1008.76 1008.68 1008.68 1008.64 1008.32
1010.08 1010.20 1010.16 1010.08 1010.04 1010.24 1010.40 1010.48 1010.64 1010.64 1010.68 1010.64 1010.92 1011.28 1011.68 1012.04 1012.32 1012.20 1012.20 1012.40 1012.44 1012.00 1011.68 1011.88 1012.00 1012.08 1012.16 1012.16 1012.16 1012.12 1012.08 1012.04 1012.00 1012.00 1011.92 1011.92 1011.96 1011.96 1011.68 1011.60 1011.64 1011.52 1011.44 1011.40 1011.32 1011.12 1010.92 1010.76 1010.64 1010.52 1010.20 1009.84 1009.60 1009.48 1009.24 1009.00 1008.92 1008.76 1008.56 1008.52 1008.48 1008.40 1008.24
1009.92 1009.80 1009.72 1009.92 1010.12 1010.00 1010.08 1010.36 1010.48 1010.44 1010.20 1010.48 1010.88 1011.20 1011.52 1011.80 1011.92 1011.84 1011.96 1012.20 1011.76 1011.40 1011.60 1011.80 1011.92 1011.96 1012.00 1012.00 1011.96 1011.88 1011.84 1011.76 1011.64 1011.64 1011.76 1011.72 1011.76 1011.84 1011.64 1011.48 1011.36 1011.20 1011.28 1011.28 1011.20 1011.12 1010.96 1010.72 1010.60 1010.48 1010.24 1009.92 1009.52 1009.28 1009.16 1008.96 1008.80 1008.68 1008.56 1008.36 1008.32 1008.24 1008.08
1009.68 1009.60 1009.60 1009.52 1009.32 1009.44 1009.84 1010.04 1010.08 1010.20 1010.40 1010.64 1010.84 1011.12 1011.32 1011.52 1011.56 1011.56 1011.76 1011.64 1011.16 1011.40 1011.56 1011.68 1011.72 1011.80 1011.84 1011.76 1011.72 1011.68 1011.64 1011.48 1011.36 1011.44 1011.44 1011.44 1011.60 1011.72 1011.60 1011.40 1011.36 1011.20 1011.20 1011.32 1011.32 1011.20 1010.96 1010.72 1010.60 1010.52 1010.28 1010.08 1009.76 1009.28 1009.00 1008.88 1008.80 1008.60 1008.64 1008.48 1008.32 1008.20 1008.08
1009.40 1009.32 1009.32 1009.32 1009.28 1009.48 1009.76 1009.84 1009.96 1010.24 1010.44 1010.60 1010.72 1010.92 1011.08 1011.24 1011.28 1011.32 1011.56 1011.16 1011.08 1011.32 1011.36 1011.44 1011.52 1011.60 1011.60 1011.48 1011.44 1011.48 1011.36 1011.28 1011.24 1011.20 1011.16 1011.28 1011.48 1011.48 1011.40 1011.32 1011.40 1011.20 1011.16 1011.20 1011.12 1011.12 1011.00 1010.76 1010.68 1010.56 1010.40 1010.24 1010.00 1009.60 1009.16 1008.88 1008.76 1008.60 1008.56 1008.48 1008.36 1008.20 1008.04
1009.72 1009.64 1009.64 1009.68 1009.64 1009.64 1009.72 1009.96 1010.20 1010.32 1010.32 1010.44 1010.60 1010.80 1011.04 1011.20 1011.20 1011.20 1011.00 1010.76 1010.96 1011.08 1011.24 1011.40 1011.44 1011.44 1011.36 1011.28 1011.28 1011.24 1011.12 1011.08 1011.08 1011.00 1010.96 1011.12 1011.36 1011.40 1011.40 1011.44 1011.44 1011.40 1011.24 1011.20 1011.12 1011.08 1011.04 1010.84 1010.68 1010.48 1010.40 1010.24 1010.00 1009.76 1009.44 1009.12 1008.88 1008.68 1008.64 1008.64 1008.56 1008.36 1008.12
1009.32 1009.36 1009.36 1009.28 1009.36 1009.72 1009.84 1009.96 1010.16 1010.20 1010.20 1010.16 1010.44 1010.76 1010.88 1010.96 1011.00 1010.84 1010.80 1010.96 1011.08 1011.24 1011.32 1011.40 1011.44 1011.40 1011.24 1011.08 1011.04 1011.04 1011.00 1010.92 1010.72 1010.64 1010.76 1011.04 1011.28 1011.36 1011.40 1011.36 1011.40 1011.48 1011.32 1011.20 1011.16 1011.04 1011.00 1010.96 1010.84 1010.68 1010.52 1010.36 1010.12 1009.92 1009.64 1009.36 1009.08 1008.92 1008.88 1008.92 1008.88 1008.72 1008.48
1009.48 1009.80 1010.12 1010.16 1010.00 1009.88 1010.08 1010.16 1010.12 1010.16 1010.28 1010.24 1010.24 1010.36 1010.44 1010.60 1010.84 1010.96 1011.08 1011.04 1011.08 1011.20 1011.28 1011.36 1011.32 1011.24 1011.04 1010.88 1011.00 1010.96 1010.80 1010.72 1010.40 1010.48 1010.72 1010.92 1011.08 1011.12 1011.20 1011.20 1011.24 1011.28 1011.24 1011.24 1011.40 1011.44 1011.36 1011.32 1011.28 1011.20 1011.16 1010.96 1010.64 1010.32 1009.88 1009.48 1009.24 1009.36 1009.56 1009.48 1009.44 1009.16 1009.00
1009.72 1009.84 1009.88 1009.84 1009.84 1009.76 1009.80 1010.00 1010.20 1010.20 1010.16 1009.84 1010.16 1010.60 1010.68 1010.84 1010.96 1011.04 1010.92 1010.80 1010.88 1011.00 1010.96 1010.92 1010.80 1010.76 1010.72 1010.72 1010.84 1010.80 1010.72 1010.60 1010.36 1010.40 1010.64 1011.00 1011.00 1011.24 1011.24 1011.12 1011.00 1011.04 1011.08 1011.44 1011.68 1011.84 1011.84 1011.88 1011.84 1011.88 1011.96 1011.72 1011.32 1010.96 1010.28 1009.84 1009.72 1010.08 1010.80 1010.60 1010.36 1010.16 1009.64
1009.64 1009.72 1009.68 1009.68 1009.64 1009.72 1009.80 1009.88 1009.92 1010.00 1010.04 1010.20 1010.44 1010.44 1010.60 1010.64 1010.64 1010.56 1010.44 1010.52 1010.52 1010.64 1010.68 1010.56 1010.48 1010.52 1010.48 1010.44 1010.52 1010.48 1010.60 1010.60 1010.44 1010.44 1010.52 1010.64 1010.84 1011.04 1011.04 1011.12 1011.12 1011.12 1011.20 1011.48 1011.96 1012.32 1012.68 1012.72 1012.56 1012.68 1012.44 1011.92 1011.44 1011.40 1011.20 1010.84 1010.96 1011.08 1010.88 1010.68 1010.48 1010.32 1010.16
1009.20 1009.36 1009.56 1009.64 1009.64 1009.68 1009.68 1009.68 1009.84 1009.96 1010.20 1010.40 1010.40 1010.36 1010.40 1010.44 1010.40 1010.32 1010.32 1010.40 1010.52 1010.60 1010.60 1010.56 1010.48 1010.52 1010.48 1010.44 1010.40 1010.32 1010.32 1010.36 1010.36 1010.36 1010.52 1010.80 1010.96 1011.00 1011.04 1011.04 1011.04 1011.28 1011.52 1011.64 1012.08 1012.56 1012.88 1012.96 1012.96 1012.84 1012.64 1012.36 1011.88 1011.52 1011.52 1011.52 1011.48 1011.24 1010.84 1010.60 1010.44 1010.32 1010.16
1009.28 1009.24 1009.32 1009.56 1009.52 1009.64 1009.76 1009.88 1009.92 1010.00 1010.04 1010.16 1010.24 1010.32 1010.40 1010.32 1010.32 1010.24 1010.28 1010.48 1010.40 1010.40 1010.36 1010.44 1010.52 1010.56 1010.52 1010.48 1010.48 1010.44 1010.40 1010.32 1010.20 1010.28 1010.52 1010.68 1010.80 1010.92 1011.04 1011.04 1011.12 1011.28 1011.72 1011.88 1012.12 1012.52 1012.72 1012.68 1012.64 1012.56 1012.40 1012.32 1012.28 1011.96 1011.48 1011.48 1011.32 1011.08 1010.76 1010.48 1010.20 1010.04 1010.00
Wind_Speed
6 6 6 6 6 6 6 6 5 5 5 5 4 4 3 1 2 1 2 2 2 1 1 2 3 4 4 5 5 5 4 4 4 4 4 4 4 4 5 5 5 6 6 6 6 6 7 7 6 7 5 5 5 5 5 5 5 5 6 5 6 6 8
10 9 8 6 6 6 5 4 3 3 4 4 5 4 3 3 3 3 3 3 2 1 0 1 1 2 3 5 4 5 5 5 5 5 5 5 4 5 4 5 5 6 6 6 7 7 8 8 7 8 8 7 6 6 4 4 5 6 6 6 7 7 8
10 9 8 7 7 7 5 3 3 4 5 5 4 3 5 5 5 5 4 3 3 2 2 2 2 2 3 4 4 5 4 4 5 5 5 6 7 7 6 5 5 6 6 7 7 7 7 8 7 7 7 7 8 7 6 6 6 6 7 7 8 7 9
11 11 9 7 6 6 6 5 5 5 5 5 6 6 5 5 5 5 4 4 4 2 2 2 3 3 3 4 4 4 4 4 4 5 5 5 6 6 7 6 5 4 5 5 6 6 6 6 8 7 7 7 8 8 8 8 8 7 6 7 7 8 9
10 6 6 7 8 7 6 6 6 6 6 6 4 4 5 4 3 4 4 4 4 3 3 4 4 4 4 4 3 3 4 4 4 4 5 5 5 6 6 7 6 5 5 5 5 6 6 6 6 7 7 7 8 8 8 8 8 7 7 7 8 8 9
11 10 9 8 8 8 7 7 7 7 7 7 6 5 5 5 4 5 5 3 3 3 4 4 6 5 5 4 3 4 4 4 4 4 4 5 5 5 6 6 6 6 5 5 6 6 6 6 6 7 7 6 7 9 9 9 7 8 8 8 9 10 9
11 10 10 9 9 9 8 7 6 5 5 5 3 2 3 5 6 5 3 4 4 4 4 5 6 5 5 3 4 4 5 6 5 5 4 5 5 5 6 5 5 5 5 6 6 5 6 6 6 6 6 7 7 8 10 9 9 7 8 9 9 10 11
10 10 9 9 9 8 7 5 4 3 3 2 3 4 6 5 4 5 5 4 4 4 5 6 6 5 5 3 3 5 5 6 5 5 4 5 5 5 6 5 6 6 6 6 6 6 6 6 6 6 6 7 8 10 9 9 9 8 7 10 10 10 8
7 9 11 10 9 8 6 5 5 6 6 6 6 6 5 4 5 5 5 4 5 5 6 6 7 5 3 4 4 6 5 5 6 6 6 6 5 6 6 5 6 5 6 6 6 5 6 7 6 6 7 7 8 9 9 9 10 9 9 10 12 13 12
9 8 6 6 5 4 4 4 4 4 5 5 5 5 6 6 4 4 4 5 5 6 7 6 6 5 4 4 5 5 6 6 6 6 6 6 6 6 6 5 6 5 6 6 5 6 5 5 6 7 7 8 9 10 10 9 9 11 10 11 12 13 13
8 8 8 7 6 5 5 5 5 6 6 6 6 6 5 5 6 5 6 5 5 6 6 6 5 5 5 4 5 6 6 7 6 6 6 6 6 7 6 6 6 5 6 6 6 6 6 6 5 7 8 8 9 10 9 9 10 9 10 11 10 11 13
9 9 9 9 7 6 7 7 6 5 6 6 6 6 6 6 6 6 6 6 5 5 5 6 5 5 5 4 5 6 7 7 6 6 7 7 7 7 6 6 6 6 6 5 7 7 6 6 6 6 7 7 8 7 8 8 8 8 8 7 8 9 11
9 9 10 10 9 7 4 4 7 7 8 8 7 7 7 7 7 6 6 6 6 6 6 6 5 5 5 5 5 6 7 7 7 6 7 7 7 6 6 6 6 6 7 5 6 7 7 6 5 5 5 6 7 7 7 8 7 7 7 6 7 9 10
8 7 5 5 5 7 8 8 7 7 9 8 8 7 7 6 6 7 6 6 6 5 5 5 4 5 5 5 5 6 7 7 7 6 7 6 6 6 6 6 6 6 6 5 7 7 6 7 6 6 6 6 6 6 6 7 7 7 7 6 7 9 9
11 10 9 8 8 7 8 8 8 9 9 9 7 7 8 6 6 5 5 5 6 5 6 5 5 5 5 5 5 7 6 6 6 6 6 6 6 6 7 6 6 6 6 6 7 6 7 7 7 6 7 7 7 6 5 6 6 6 5 6 8 8 10
11 11 11 11 9 9 8 8 8 10 9 7 8 8 8 6 6 6 6 7 6 6 6 4 6 6 5 5 6 6 6 6 6 6 6 6 6 6 6 6 6 6 6 7 7 7 7 8 7 6 6 7 8 7 5 6 6 8 10 8 8 10 11
12 12 11 9 7 8 8 8 8 8 8 9 9 10 8 7 7 6 6 7 6 6 6 5 6 6 5 6 6 5 6 6 6 5 6 6 6 6 6 7 6 6 7 7 7 7 7 7 7 7 6 6 7 7 6 5 6 11 11 11 12 11 11
12 11 10 10 9 8 8 9 9 10 11 10 10 9 7 7 7 6 8 7 7 8 6 5 6 5 5 6 6 6 6 6 5 5 6 6 6 6 6 6 6 7 7 7 8 8 7 7 7 7 6 5 6 6 6 6 8 11 10 11 14 13 12
12 11 11 10 9 10 10 11 12 13 11 9 10 9 9 8 6 8 8 7 9 6 5 6 6 5 6 6 5 6 5 5 5 6 6 7 6 6 6 6 7 7 6 7 7 6 7 8 8 8 6 5 6 6 6 5 8 11 10 11 14 14 15
12 12 9 8 9 11 11 10 9 10 11 12 11 10 9 8 8 9 7 7 5 6 7 6 5 5 6 5 6 5 5 5 5 6 7 6 6 6 6 6 7 6 5 5 6 6 7 8 9 8 7 6 6 7 6 5 7 10 9 10 14 16 16
9 8 9 9 9 9 10 11 11 9 8 10 10 7 6 6 7 7 5 6 7 6 6 5 5 5 5 6 6 5 5 5 5 6 6 6 6 6 6 6 6 6 5 5 6 6 7 8 8 8 7 7 6 6 6 5 9 10 9 10 13 15 13
10 9 10 11 13 12 11 11 13 13 13 10 6 6 7 8 7 6 9 5 6 6 5 5 5 6 5 6 6 6 6 5 6 6 6 6 6 6 6 6 5 6 6 5 6 6 5 6 5 6 7 6 6 6 7 6 9 9 8 10 12 14 8
12 13 13 12 12 13 12 12 11 12 8 6 8 7 8 8 6 7 7 6 7 6 5 4 6 7 6 6 6 6 6 5 5 6 6 6 6 7 6 6 7 6 3 5 6 7 7 6 6 6 6 7 6 6 7 7 7 8 8 8 10 10 6
3 6 6 5 4 3 5 7 6 6 7 7 8 9 7 7 6 6 6 8 7 5 6 5 7 7 6 7 7 6 6 5 4 5 6 5 6 6 6 6 5 5 3 4 6 8 7 6 7 7 5 5 7 6 6 7 7 8 9 8 9 8 6
6 7 7 7 9 10 8 9 10 9 6 6 8 9 8 7 7 6 8 8 7 5 6 8 8 7 7 8 7 6 5 5 4 5 5 5 6 5 6 6 5 5 4 3 4 6 7 6 5 6 7 5 6 7 7 6 7 8 8 8 6 7 4
7 6 7 8 7 8 9 8 5 5 9 10 12 9 8 7 7 8 8 9 6 5 8 9 9 8 6 6 6 5 5 4 5 5 5 6 6 5 5 5 5 4 4 4 3 5 6 5 5 6 7 7 6 6 6 6 6 6 8 8 6 5 4
7 8 8 9 10 9 7 8 10 12 13 12 10 6 6 7 7 9 8 7 5 8 10 9 6 5 6 5 5 5 6 4 5 6 6 5 5 5 5 4 4 4 4 5 5 5 5 6 6 6 7 8 7 6 6 5 5 6 7 9 7 5 2
5 5 5 6 7 7 8 8 8 9 8 8 6 6 7 7 8 8 7 6 8 11 9 5 5 4 5 5 6 6 6 6 5 5 5 4 3 4 5 4 3 2 3 3 4 6 6 6 6 6 7 8 8 6 6 6 6 5 7 7 7 7 2
8 9 9 8 7 8 8 7 9 11 12 6 5 6 6 8 8 8 6 7 11 9 5 4 4 4 5 5 6 6 6 6 6 4 4 3 2 3 5 5 5 5 3 4 5 5 6 6 5 6 7 7 7 7 6 6 5 6 6 8 8 8 8
6 6 5 8 9 8 7 9 8 8 4 3 4 6 6 8 8 7 7 10 10 4 3 4 5 4 5 5 6 6 6 6 5 5 4 3 2 3 4 5 4 4 3 3 3 4 5 6 5 5 5 6 7 7 7 6 5 5 6 7 9 9 9
9 9 9 9 11 6 6 10 10 6 4 4 5 6 6 7 7 7 7 8 5 4 4 5 4 4 5 6 6 5 6 5 5 5 3 2 2 3 3 5 3 4 4 4 4 4 5 6 5 5 5 6 6 7 7 7 6 5 5 7 9 9 8
5 6 6 5 5 4 5 4 3 4 6 5 5 5 5 6 7 8 8 5 3 3 3 3 4 5 6 6 6 6 5 5 5 4 3 2 3 4 3 3 4 4 4 4 4 4 4 5 5 5 5 5 5 6 6 7 6 5 5 5 6 6 9
7 7 8 10 6 1 3 5 6 6 6 7 3 5 5 7 7 8 5 4 3 3 3 4 5 6 6 7 6 5 5 6 6 4 3 3 2 1 1 1 2 3 3 3 4 4 4 5 5 5 5 7 7 7 6 5 5 6 6 6 5 5 7
6 4 3 2 2 1 2 3 6 6 4 5 5 6 6 6 5 4 5 5 5 4 3 4 5 6 7 7 5 5 5 6 6 5 3 4 3 3 3 2 1 2 3 3 4 4 5 5 5 6 6 6 6 6 6 5 4 5 6 7 6 5 4
3 3 3 1 1 3 6 4 4 4 6 8 2 2 2 2 2 3 4 4 4 3 4 5 5 5 6 5 4 5 4 5 3 4 5 5 3 0 3 4 2 2 2 4 3 2 3 4 4 4 4 4 5 6 6 6 5 6 7 7 8 7 6
3 2 2 2 3 3 3 3 5 5 5 3 1 1 1 2 2 2 2 3 4 4 5 5 4 4 5 4 4 3 3 4 4 3 3 3 1 3 2 1 1 2 1 4 6 10 7 5 4 4 5 5 4 4 4 5 6 11 12 10 9 10 10
2 2 3 4 4 4 5 5 3 3 2 2 1 2 2 2 2 1 2 3 3 3 4 3 3 4 5 4 4 4 4 4 4 4 3 1 1 0 2 2 2 3 4 7 8 8 7 5 3 3 4 5 5 6 2 3 8 10 11 10 9 8 9
2 2 3 4 4 4 2 1 1 2 2 1 2 2 2 2 2 2 2 3 2 1 1 2 3 4 5 5 4 4 4 4 4 3 2 3 3 2 3 1 1 4 7 9 11 9 8 9 9 8 7 7 6 6 6 6 8 10 10 10 10 9 8
Wind_Direction
189 199 208 203 199 197 200 206 192 181 188 185 188 193 194 200 164 187 144 108 110 79 357 330 319 342 347 329 330 330 318 312 317 309 310 300 288 289 297 292 289 288 287 289 290 294 295 300 297 297 295 288 279 249 237 248 253 247 243 231 233 228 233
199 202 200 199 199 207 214 201 189 192 193 191 192 193 194 199 195 197 193 190 193 174 207 272 296 319 302 301 308 312 318 317 319 315 317 313 315 310 288 285 280 287 289 286 293 295 301 300 302 304 307 308 303 299 279 260 262 265 259 257 249 249 244
201 200 196 193 198 199 198 189 213 214 194 190 193 191 200 200 194 194 196 196 219 241 281 273 261 270 282 274 291 297 303 308 314 316 315 316 315 314 311 307 296 286 286 293 294 296 299 302 306 306 309 310 312 312 308 300 289 281 279 275 272 265 264
200 198 196 192 195 198 189 190 201 208 208 194 192 198 205 213 205 206 203 192 193 231 266 279 262 268 267 281 290 293 297 300 300 302 306 309 311 314 315 311 304 291 292 287 288 290 290 299 304 305 307 309 308 310 310 308 306 300 287 276 271 267 263
202 187 172 179 195 195 199 201 208 204 199 205 213 217 211 213 198 203 218 219 191 222 227 245 275 265 266 258 258 270 280 287 289 284 293 301 301 309 308 307 307 300 290 288 289 292 297 297 298 299 302 304 305 304 301 297 294 292 290 282 276 269 268
192 184 183 185 191 197 200 205 207 199 193 200 211 216 216 202 193 212 221 215 226 261 287 292 275 260 262 252 254 276 284 278 271 277 279 281 289 300 293 293 301 303 301 291 298 288 286 291 291 295 295 297 296 298 297 295 292 290 287 283 275 270 266
187 181 181 187 188 195 202 207 204 206 203 207 213 236 202 191 200 214 206 215 236 234 265 269 259 258 263 280 285 294 290 290 293 287 267 276 272 285 286 288 292 286 282 295 288 284 283 285 284 283 282 283 287 289 293 295 297 293 290 286 283 278 272
180 179 185 184 190 193 199 202 186 192 190 183 203 223 211 216 207 226 214 213 219 234 251 247 259 252 267 278 293 291 295 297 293 281 287 282 284 280 278 282 287 288 297 294 284 284 280 278 275 277 272 275 279 282 284 289 290 291 288 288 285 278 272
176 180 177 183 188 193 195 188 182 182 179 192 203 211 213 213 212 214 222 218 218 218 248 236 247 258 263 289 297 293 290 293 291 294 295 292 284 279 279 284 285 288 290 286 287 283 278 280 278 276 276 275 274 278 282 284 290 292 288 285 284 281 277
170 174 188 184 186 176 163 159 159 157 176 203 220 221 221 222 221 226 234 231 225 229 247 259 254 263 278 280 286 285 295 288 284 289 288 289 287 280 280 278 284 287 287 282 285 290 281 257 280 283 279 281 284 284 289 295 292 296 293 291 291 288 283
171 176 176 181 182 171 149 148 169 178 190 204 215 221 225 224 222 222 234 237 232 236 249 257 259 256 257 260 280 289 284 285 284 284 285 280 287 287 285 287 294 293 288 289 288 286 290 289 281 283 283 285 287 298 299 297 300 301 303 308 304 300 294
175 176 184 183 174 157 176 187 181 177 202 216 218 218 219 222 220 220 230 239 227 234 250 255 251 240 248 245 265 282 288 284 286 280 277 281 286 285 290 295 294 295 295 281 284 288 283 279 285 284 287 287 291 289 285 288 291 299 303 304 314 312 309
175 179 184 183 180 178 161 171 187 194 210 215 217 216 218 214 214 216 225 242 242 230 235 246 242 245 242 254 256 276 280 282 278 276 278 280 280 285 288 289 290 290 287 285 280 283 282 277 275 276 274 280 286 284 285 287 288 296 294 299 310 309 305
171 180 181 163 162 172 184 188 189 201 215 217 222 220 223 220 209 209 213 229 240 238 232 240 235 243 240 242 261 261 271 272 272 276 277 279 281 284 285 288 285 277 277 281 282 272 266 269 267 277 279 275 267 267 275 280 289 291 300 300 305 310 302
178 182 181 180 190 186 182 186 194 207 214 218 216 217 219 215 218 220 239 237 245 243 240 229 222 238 232 228 246 261 262 273 277 274 277 284 284 283 283 282 281 279 275 273 274 269 263 262 264 271 283 285 278 274 268 275 283 284 298 304 310 310 309
179 182 185 192 192 190 193 192 196 207 211 213 210 215 211 210 217 222 225 236 237 239 246 200 227 227 230 237 250 258 266 270 273 276 281 282 282 283 287 285 283 281 281 278 274 272 275 274 274 274 272 281 286 283 284 288 286 284 285 294 307 317 314
181 185 192 194 184 193 194 198 205 208 210 213 212 213 205 203 216 222 231 237 240 241 242 200 229 226 229 249 254 258 267 272 275 278 280 278 283 285 285 286 284 282 284 286 283 283 283 280 282 281 275 269 277 282 284 283 285 286 295 302 310 311 312
183 186 190 192 191 188 196 201 207 208 211 211 213 211 203 208 218 221 234 231 232 239 232 214 224 233 240 244 259 265 267 271 276 282 282 287 283 283 283 284 283 277 281 287 292 293 295 292 284 280 278 272 265 266 273 284 287 295 301 308 313 309 315
182 187 194 187 186 196 200 203 206 208 209 209 210 206 210 203 206 223 231 227 233 233 230 228 227 234 250 257 257 266 272 274 275 278 285 283 282 284 286 285 283 280 282 287 291 297 297 295 295 289 282 269 265 265 274 281 286 294 309 317 317 312 328
186 191 188 184 191 200 205 205 211 212 209 206 207 203 204 196 205 224 225 229 237 224 232 229 245 234 252 265 265 267 273 277 272 273 276 283 286 285 286 284 281 284 274 281 294 293 293 296 294 291 282 269 266 269 278 284 286 302 313 318 317 326 333
187 181 181 187 202 212 207 205 209 211 216 222 214 207 197 213 219 231 242 232 237 232 230 230 244 256 255 264 271 271 270 272 266 267 275 282 285 288 285 283 289 292 291 290 287 294 298 298 301 293 282 276 270 274 285 280 292 301 313 319 325 334 336
189 178 184 197 200 206 202 202 204 204 211 212 198 205 199 216 212 213 237 230 232 241 229 233 240 257 266 262 266 267 267 262 268 267 276 284 292 297 296 296 292 291 299 302 300 295 284 284 267 279 284 280 278 283 285 280 286 302 314 323 334 335 337
179 187 196 203 199 204 204 204 203 209 203 188 196 196 210 218 206 215 236 242 243 237 244 229 243 250 251 258 262 264 265 258 254 268 278 290 300 300 298 297 303 301 292 301 303 304 303 296 298 290 285 280 274 269 279 286 290 310 315 326 336 338 330
196 211 212 206 203 219 210 218 227 229 205 197 200 207 209 208 205 212 230 242 247 239 250 233 242 242 243 250 254 254 261 255 236 257 277 289 289 288 286 281 267 271 284 298 306 304 298 302 303 300 286 276 274 263 272 287 300 310 308 323 336 330 322
190 194 197 193 193 201 203 208 210 212 203 201 214 215 202 201 196 202 228 240 244 235 248 248 244 238 235 241 245 249 250 250 238 248 258 268 276 272 280 283 287 299 319 297 278 270 284 290 293 299 303 278 272 275 274 282 296 303 305 317 334 339 321
187 187 197 200 207 206 207 205 186 199 206 209 221 205 190 191 188 207 223 239 236 236 244 246 240 235 237 245 248 246 252 238 244 254 246 255 273 277 267 279 296 306 312 302 274 284 290 293 287 301 302 310 303 292 270 274 284 291 302 311 324 337 323
193 186 191 196 208 203 205 201 199 207 209 214 214 183 179 176 189 214 224 233 228 240 242 243 243 236 238 245 248 251 251 244 232 249 254 239 257 277 285 287 284 300 316 320 322 310 308 309 308 308 307 307 309 303 290 262 272 285 294 301 312 327 0
183 211 229 217 214 197 203 208 214 226 233 226 191 174 168 174 197 218 225 226 235 242 245 246 242 237 243 243 246 247 247 247 241 224 247 249 251 277 288 281 259 267 310 312 320 334 327 322 319 313 308 306 305 305 302 292 278 282 293 296 306 313 318
189 199 209 213 230 222 197 206 217 219 224 203 177 170 170 174 202 218 218 222 237 242 249 254 247 244 247 253 251 246 242 241 234 230 222 244 241 259 279 297 323 333 357 357 342 339 328 322 324 317 309 311 308 310 306 307 303 279 292 303 307 304 307
212 222 228 224 221 212 192 213 223 229 224 176 176 168 171 180 206 215 212 231 241 243 248 250 251 251 257 254 252 247 241 235 229 229 227 231 231 244 272 305 324 320 349 346 339 330 324 320 321 319 311 310 311 312 318 321 316 308 316 318 320 313 308
212 216 217 216 226 218 202 212 219 215 206 200 177 176 184 193 202 214 222 242 234 227 233 247 246 241 258 259 255 244 241 237 228 220 200 191 196 255 296 312 344 333 329 349 339 331 324 311 313 312 305 309 305 305 310 322 329 335 351 359 352 345 335
272 260 256 273 273 241 216 216 202 191 215 220 196 188 190 197 197 210 226 237 220 206 203 244 262 268 261 261 253 241 235 237 237 217 172 184 207 234 232 258 302 303 305 325 320 322 317 313 318 317 317 307 304 304 304 313 323 339 353 358 354 351 342
248 238 230 233 252 239 185 181 193 206 207 227 201 180 196 200 209 222 248 273 291 284 267 273 263 266 272 270 262 244 226 224 213 190 184 215 193 205 254 248 236 284 296 297 323 329 324 325 328 328 329 322 322 318 316 314 321 342 342 350 351 353 343
261 296 336 350 347 185 167 192 208 214 209 233 215 193 196 201 212 234 253 267 271 279 277 264 256 259 269 271 262 240 223 226 208 171 162 250 254 286 310 296 196 250 289 319 344 341 331 339 338 342 335 323 321 318 317 322 334 8 350 340 339 331 330
278 267 279 259 234 178 192 199 207 206 208 231 230 143 174 200 227 243 248 269 262 236 235 250 254 261 267 266 244 249 238 227 219 184 173 217 241 136 246 260 274 273 316 72 56 8 347 338 347 356 342 319 319 329 319 331 343 349 341 313 313 313 323
256 231 214 208 172 169 172 185 196 214 234 266 26 90 72 17 352 348 277 237 244 222 233 248 267 283 281 266 235 238 263 252 236 210 206 197 327 10 326 218 242 220 77 84 68 65 55 44 39 350 345 345 342 352 318 322 328 326 326 317 312 305 302
212 202 172 178 161 174 189 201 201 211 271 11 64 66 75 34 290 230 235 244 246 226 240 280 309 304 296 297 272 238 224 228 238 236 192 100 106 131 244 317 350 46 84 97 94 86 79 77 63 16 18 16 352 353 86 26 329 326 324 324 319 308 303
174 184 171 167 174 174 165 165 178 188 199 133 109 120 150 196 237 242 251 237 241 209 256 311 293 293 294 300 286 281 260 232 233 213 144 122 155 156 166 119 3 67 68 104 117 106 91 71 49 35 28 25 19 6 6 357 344 335 330 325 322 322 320